User: anonymous   Login
Location: Caltech
(34.1382°N, 118.1253°W)
Time: 21:38:42
(UTC-07:00)
Language:

Cosmos 1408 Rocket - Orbit

View from above orbital plane
View from above orbital plane
View from above satellite
View from above satellite

Ground track
Ground track

The orbit data is extracted from the following two-line orbital elements,

1 13553U 82092B   15213.91153759  .00000229  00000-0  24516-4 0  9995
2 13553 082.5708 152.4617 0022351 145.5442 275.8874 14.83928644775406
Epoch (UTC): 01 August 2015 21:52:36
Eccentricity: 0.0022351
inclination: 82.5708°
perigee height: 601 km
apogee height: 632 km
right ascension of ascending node: 152.4617°
argument of perigee: 145.5442°
revolutions per day: 14.83928644
mean anomaly at epoch: 275.8874°
orbit number at epoch: 77540

The dashed part of the orbit path shows where the satellite is in the earth's shadow,  

DLR